This is the latest recevied weather packets stored in our database for station/object SA3PJN-WX. If no packets are shown the sender has not sent any weather packets the latest 10 day(s).
| Time | Temp. | Humidity | Pressure | Rain* | Wind** | Luminosity | Snow |
|---|---|---|---|---|---|---|---|
| 1777708353 | 10.56° C | 66% | 964.7 hPa | - | - | - | - |
| 1777708053 | 10° C | 66% | 964.7 hPa | - | - | - | - |
| 1777707723 | 10° C | 66% | 964.9 hPa | - | - | - | - |
| 1777707423 | 10° C | 65% | 964.9 hPa | - | - | - | - |
| 1777707123 | 10.56° C | 66% | 964.9 hPa | - | - | - | - |
| 1777706823 | 10.56° C | 65% | 964.8 hPa | - | - | - | - |
| 1777706523 | 10.56° C | 63% | 964.8 hPa | - | - | - | - |
| 1777706223 | 11.11° C | 64% | 964.7 hPa | - | - | - | - |
| 1777705893 | 11.11° C | 63% | 964.9 hPa | - | - | - | - |
| 1777705593 | 11.11° C | 62% | 964.8 hPa | - | - | - | - |
| 1777705293 | 11.11° C | 62% | 964.9 hPa | - | - | - | - |
| 1777704963 | 12.22° C | 61% | 964.9 hPa | - | - | - | - |
| 1777704663 | 12.78° C | 61% | 964.9 hPa | - | - | - | - |
| 1777704333 | 11.67° C | 62% | 964.9 hPa | - | - | - | - |
| 1777704033 | 10.56° C | 64% | 964.9 hPa | - | - | - | - |
| 1777703733 | 11.11° C | 63% | 964.8 hPa | - | - | - | - |
| 1777703433 | 11.11° C | 65% | 964.7 hPa | - | - | - | - |
| 1777703103 | 10.56° C | 65% | 964.8 hPa | - | - | - | - |
| 1777702773 | 10.56° C | 67% | 964.8 hPa | - | - | - | - |
| 1777702473 | 10.56° C | 69% | 964.8 hPa | - | - | - | - |
| 1777702172 | 9.44° C | 68% | 964.7 hPa | - | - | - | - |
| 1777701873 | 9.44° C | 70% | 964.9 hPa | - | - | - | - |
| 1777701572 | 9.44° C | 70% | 964.8 hPa | - | - | - | - |
| 1777701272 | 8.89° C | 71% | 964.8 hPa | - | - | - | - |
| 1777700972 | 8.89° C | 70% | 964.9 hPa | - | - | - | - |
* Rain since midnight (hover to see other rain measurements)
** Current wind speed in m/s (hover to see current wind gust speed)